CZ-2D DEB, 38302

Orbit data source: Space-Track

CZ-2D DEB, 38302 is space debris in SSO originally from a launch on Tue, 15 Jun 2010 UTC launched from the Jiuquan Satellite Launch Center, China (JSC). Debris objects in space refer to the collection of defunct objects orbiting the Earth. Examples of debris include non-operational satellites, rocket bodies, and fragments generated from explosions, collisions, or faulty payload assembly.

Loading next visibility...
Identifier
38302, 2010-027G
Orbit
SSO
Country
Flag of CNCN / PRC
Related business
Manufacturer
Unknown
Mission
Spacecraft
Bus & Motor
Unknown
Mass
Unknown
Launch date (UTC)
2010-06-15 (16 years ago)
Launch vehicle
Unknown
Launch site
Jiuquan Satellite Launch Center, China (JSC)
Object type
Payload
Rocket body
Debris
Shape & HBR
Unknown shape, 0.1 m
Radar Cross Section
Small (<0.1 m²)

Expand to show TLE details & history
Last TLE update: 2 days ago

TLE from 2 days ago
0 CZ-2D DEB
1 38302U 10027G   26124.37894006  .00037052  00000-0  15007-2 0  9990
2 38302  97.4747 162.9063 0067339  58.3869 302.3915 15.22460080839898
Epoch: 2026-05-04T09:05Z
TLE epoch observation values (Epoch: 2026-05-04T09:05:40.421Z)
Latitude
-0.00001°
Longitude
164.21889°
Altitude
476.927 km
Speed
7.641 km/s
True Right ascension
10h 51m 37s
True Declination
0° 00' 00"
Sunlit
Object was in full shadow at epoch
Visualization orbit readout
Latitude
Unknown
Longitude
Unknown
Altitude
Unknown
Speed
Unknown
Apparent Right ascension
Unknown
Apparent Declination
Unknown
Sunlit
N/A
Visualization observer readout
Local Sidereal Time
23:37:57
Azimuth
Unknown
Elevation
Unknown
Doppler factor
Unknown
Orbital elements
Apogee altitude
541.674 km
Perigee altitude
449.103 km
Semi-major axis
6,873.525 km
Eccentricity
0.00673
Inclination
97.4747°
RAAN
162.9063°
Arg. of periapsis
58.3869°
True anomaly
301.73698°
Mean anomaly
302.3915°
Eccentric anomaly
302.06453°
Mean motion
3.80867 °/min
Orbital period
94.52 mins
BSTAR
0.0015007
Loading maneuver chart data...
Computing Atmospheric mass density...
Loading historical data...
Loading historical data...
Loading historical data...
Loading historical data...
Loading historical data...
Loading historical data...
Loading historical data...

Documentation

Showing up to 5 results
|